Accueil
METAR-TAF:

METAR-TAF

Aéroports :

Meiringen, Suisse

latitude: 46-44-25N, longitude: 8-06-36E, altitude: 577 m

Observation

Le bulletin a été fait il y a 30 minutes, à 19:50 UTC
Vent 6 kt de est
Température 14°C
Humidité 82%
Pression 1029 hPa
Visibilité 10 km ou plus
Quelques nuages à une hauteur de 4800 ft

METAR: LSMM 061950Z AUTO 10006KT 9999NDV FEW048 14/11 Q1029 RMK

Heure: 22:20 (20:20 UTC)


TAF: absent

Observations et prévisions météorologiques de plus de 4000 aéroports (messages METAR et TAF).

Les stations disponibles sont représentées par des disques jaunes et rouges sur la carte.

Passer la souris dessus pour voir le nom de la station.

Cliquer dessus pour voir les observations et prévisions météorologiques.

Pour changer de carte: cliquez sur les boutons verts avec une croix noire pour zoomer, sur le bouton vert avec un tiret pour effectuer un zoom arrière, ou sur les flèches vertes pour les cartes adjacentes.


METAR-TAF: